TimeCDT,TemperatureF,Dew PointF,Humidity,Sea Level PressureIn,VisibilityMPH,Wind Direction,Wind SpeedMPH,Gust SpeedMPH,PrecipitationIn,Events,Conditions,WindDirDegrees,DateUTC
12:15 AM,46.4,21.2,37,29.90,10.0,SW,20.7,32.2,N/A,,Overcast,230,2013-10-26 05:15:00
12:35 AM,46.4,21.2,37,29.89,10.0,SW,24.2,32.2,N/A,,Overcast,230,2013-10-26 05:35:00
12:55 AM,46.4,21.2,37,29.88,10.0,SW,23.0,35.7,N/A,,Overcast,230,2013-10-26 05:55:00
1:15 AM,46.4,21.2,37,29.86,10.0,SW,19.6,35.7,N/A,,Overcast,230,2013-10-26 06:15:00
1:35 AM,46.4,21.2,37,29.84,10.0,SW,20.7,34.5,N/A,,Overcast,230,2013-10-26 06:35:00
1:55 AM,46.4,23.0,40,29.82,10.0,SW,23.0,38.0,N/A,,Mostly Cloudy,230,2013-10-26 06:55:00
2:15 AM,46.4,23.0,40,29.81,10.0,SW,23.0,33.4,N/A,,Scattered Clouds,230,2013-10-26 07:15:00
2:35 AM,46.4,23.0,40,29.81,10.0,WSW,26.5,33.4,N/A,,Mostly Cloudy,240,2013-10-26 07:35:00
2:55 AM,46.4,23.0,40,29.80,10.0,WSW,19.6,29.9,N/A,,Overcast,240,2013-10-26 07:55:00
3:15 AM,46.4,23.0,40,29.80,10.0,WSW,18.4,28.8,N/A,,Overcast,240,2013-10-26 08:15:00
3:35 AM,44.6,23.0,43,29.79,10.0,WSW,18.4,28.8,N/A,,Overcast,240,2013-10-26 08:35:00
3:55 AM,44.6,23.0,43,29.78,10.0,WSW,17.3,26.5,N/A,,Overcast,240,2013-10-26 08:55:00
4:15 AM,44.6,24.8,46,29.78,10.0,WSW,18.4,25.3,N/A,,Overcast,240,2013-10-26 09:15:00
4:35 AM,44.6,24.8,46,29.78,10.0,WSW,19.6,29.9,N/A,,Overcast,250,2013-10-26 09:35:00
4:55 AM,44.6,24.8,46,29.78,10.0,WSW,21.9,28.8,N/A,,Overcast,240,2013-10-26 09:55:00
5:15 AM,44.6,26.6,49,29.78,10.0,WSW,15.0,32.2,N/A,,Scattered Clouds,240,2013-10-26 10:15:00
5:35 AM,44.6,26.6,49,29.78,10.0,WSW,17.3,25.3,N/A,,Clear,240,2013-10-26 10:35:00
5:55 AM,44.6,26.6,49,29.77,10.0,WSW,15.0,21.9,N/A,,Clear,250,2013-10-26 10:55:00
6:15 AM,44.6,26.6,49,29.77,10.0,WSW,13.8,21.9,N/A,,Clear,240,2013-10-26 11:15:00
6:35 AM,42.8,26.6,53,29.77,10.0,WSW,15.0,23.0,N/A,,Clear,240,2013-10-26 11:35:00
6:45 AM,44.6,26.6,49,29.78,10.0,WSW,13.8,23.0,N/A,,Clear,250,2013-10-26 11:45:00
6:55 AM,42.8,28.4,57,29.78,10.0,WSW,15.0,20.7,N/A,,Clear,250,2013-10-26 11:55:00
7:45 AM,42.8,28.4,57,29.78,10.0,WSW,16.1,23.0,N/A,,Scattered Clouds,250,2013-10-26 12:45:00
8:45 AM,44.6,30.2,57,29.80,10.0,West,11.5,19.6,N/A,,Scattered Clouds,260,2013-10-26 13:45:00
9:45 AM,48.2,33.8,58,29.81,10.0,West,13.8,23.0,N/A,,Clear,280,2013-10-26 14:45:00
10:45 AM,50.0,32.0,50,29.82,10.0,NW,23.0,26.5,N/A,,Mostly Cloudy,310,2013-10-26 15:45:00
11:45 AM,48.2,32.0,54,29.85,10.0,WNW,16.1,25.3,N/A,,Mostly Cloudy,300,2013-10-26 16:45:00
12:45 PM,51.8,28.4,41,29.86,10.0,NW,13.8,24.2,N/A,,Mostly Cloudy,320,2013-10-26 17:45:00
1:45 PM,51.8,28.4,41,-9999,-9999.0,WNW,20.7,34.5,N/A,,Mostly Cloudy,290,2013-10-26 18:45:00
2:45 PM,50.0,24.8,37,29.91,10.0,NW,20.7,32.2,N/A,,Overcast,320,2013-10-26 19:45:00
3:45 PM,50.0,24.8,37,29.94,-9999.0,North,-9999.0,-,N/A,,Scattered Clouds,0,2013-10-26 20:45:00
4:45 PM,48.2,26.6,43,29.96,10.0,NW,16.1,20.7,N/A,,Scattered Clouds,310,2013-10-26 21:45:00
5:45 PM,46.4,26.6,46,29.99,10.0,NW,10.4,17.3,N/A,,Mostly Cloudy,310,2013-10-26 22:45:00
6:45 PM,46.4,26.6,46,30.01,10.0,NW,12.7,-,N/A,,Overcast,320,2013-10-26 23:45:00
7:45 PM,44.6,28.4,53,30.03,10.0,NW,8.1,-,N/A,,Overcast,310,2013-10-27 00:45:00
8:45 PM,44.6,28.4,53,30.04,10.0,NW,8.1,-,N/A,,Overcast,310,2013-10-27 01:45:00
9:15 PM,42.8,30.2,61,30.05,10.0,WNW,5.8,-,N/A,,Overcast,290,2013-10-27 02:15:00
9:35 PM,42.8,30.2,61,30.05,10.0,WNW,5.8,-,N/A,,Overcast,290,2013-10-27 02:35:00
9:55 PM,42.8,30.2,61,30.06,10.0,WNW,3.5,-,N/A,,Overcast,290,2013-10-27 02:55:00
10:15 PM,42.8,30.2,61,30.05,10.0,West,3.5,-,N/A,,Overcast,280,2013-10-27 03:15:00
10:35 PM,42.8,30.2,61,30.05,10.0,Calm,Calm,-,N/A,,Overcast,0,2013-10-27 03:35:00
10:55 PM,42.8,30.2,61,30.04,10.0,Calm,Calm,-,N/A,,Overcast,0,2013-10-27 03:55:00
11:15 PM,41.0,30.2,65,30.04,10.0,Calm,Calm,-,N/A,,Scattered Clouds,0,2013-10-27 04:15:00
11:35 PM,41.0,30.2,65,30.04,10.0,Calm,Calm,-,N/A,,Clear,0,2013-10-27 04:35:00
11:55 PM,41.0,30.2,65,30.04,10.0,West,3.5,-,N/A,,Clear,280,2013-10-27 04:55:00